Regional Weather Roundup
Issued by NWS

Home | Current Version | Previous Version | Text Only | Print | Product List | Glossary Off
Versions: 1 2 3 4 5 6 7 8 9 10 11 12 13 14 15 16 17 18 19 20 21 22 23 24 25 26 27 28 29 30 31 32 33 34 35 36 37 38 39 40 41 42 43 44 45 46 47 48 49 50

000
ASUS43 KIND 261759
RWRIN

WEATHER ROUNDUP FOR INDIANA
NATIONAL WEATHER SERVICE INDIANAPOLIS IN
100 PM EST WED NOV 26 2014

NOTE: "FAIR" INDICATES FEW OR NO CLOUDS BELOW 12,000 FEET WITH NO
SIGNIFICANT WEATHER AND/OR OBSTRUCTIONS TO VISIBILITY.

* - STATION DOES NOT REPORT WEATHER SUCH AS PRECIPITATION OR FOG.

+ - STATION NOT QUALITY CONTROLLED BY THE NATIONAL WEATHER SERVICE.
    USE DATA WITH CAUTION...ESPECIALLY DEWPOINT AND RELATIVE
    HUMIDITY OBSERVATIONS.

INZ001>003-010>013-019-020-261900-
NORTHWEST INDIANA

CITY           SKY/WX    TMP DP  RH WIND       PRES   REMARKS
GARY /AIRPORT/ CLOUDY    28  19  69 E9        30.14F WCI  20
VALPARAISO     NOT AVBL

$$

LMZ046-743>745-261900-
SOUTHERN LAKE MICHIGAN

STATION/POSITION TIME  TEMP WIND        PRES
                       AIR  DIR/SP/G
                 (UTC) (F)  (DEG/KT/KT) (MB)
MICHIGAN CITY    1700   26   90/  7/  9   N/A

$$

INZ004-005-014>016-021>024-261900-
NORTH CENTRAL INDIANA

CITY           SKY/WX    TMP DP  RH WIND       PRES   REMARKS
GOSHEN         CLOUDY    28  20  71 S8        30.10F WCI  20
6HR MIN TEMP:  25; 6HR MAX TEMP:  28;

SOUTH BEND     CLOUDY    28  20  71 SE6       30.12F WCI  22
6HR MIN TEMP:  25; 6HR MAX TEMP:  28; 6HR PCP: TRACE;


$$

INZ006>009-017-018-025>027-261900-
NORTHEAST INDIANA

CITY           SKY/WX    TMP DP  RH WIND       PRES   REMARKS
ANGOLA *+      CLOUDY    27  19  74 SE6       30.09F WCI  20
FORT WAYNE     CLOUDY    28  20  71 E8        30.11F WCI  20
6HR MIN TEMP:  25; 6HR MAX TEMP:  29; 6HR PCP: TRACE;


$$

INZ028-029-035-036-043>045-051>053-261900-
WEST CENTRAL INDIANA

CITY           SKY/WX    TMP DP  RH WIND       PRES   REMARKS
GREENCASTLE +  MOSUNNY   32  23  69 E7        30.09F WCI  26
LAFAYETTE      CLOUDY    28  20  71 E9        30.11F WCI  19
6HR MIN TEMP:  24; 6HR MAX TEMP:  28; 6HR PCP: TRACE;

TERRE HAUTE    PTSUNNY   30  23  75 SE6       30.10F WCI  24
6HR MIN TEMP:  23; 6HR MAX TEMP:  30;


$$

INZ030>032-037>040-046>048-054>057-064-065-261900-
CENTRAL INDIANA

CITY           SKY/WX    TMP DP  RH WIND       PRES   REMARKS
INDIANAPOLIS   PTSUNNY   31  22  69 S3        30.09F
6HR MIN TEMP:  26; 6HR MAX TEMP:  31;

-EAGLE CREEK   CLOUDY    31  22  69 CALM      30.09F
6HR MIN TEMP:  26; 6HR MAX TEMP:  31;

KOKOMO *+      CLOUDY    28  21  74 SE6       30.11S WCI  22
MT COMFORT *+  CLOUDY    30  18  59 CALM      30.09F
SHELBYVILLE    CLOUDY    33  24  69 CALM      30.09F
6HR MIN TEMP:  29; 6HR MAX TEMP:  33;


$$

INZ033-034-041-042-049-050-058-059-261900-
EAST CENTRAL INDIANA

CITY           SKY/WX    TMP DP  RH WIND       PRES   REMARKS
MUNCIE         CLOUDY    28  21  75 SE5       30.09F WCI  23
6HR MIN TEMP:  27; 6HR MAX TEMP:  28;


$$

INZ060-061-067>069-081>083-085>088-261900-
SOUTHWEST INDIANA

CITY           SKY/WX    TMP DP  RH WIND       PRES   REMARKS
EVANSVILLE     MOSUNNY   38  28  67 SE7       30.09F
6HR MIN TEMP:  23; 6HR MAX TEMP:  38;

HUNTINGBURG *+ SUNNY     36  27  69 SE3       30.10F
6HR MIN TEMP:  23; 6HR MAX TEMP:  36;


$$

INZ062-063-066-070>080-084-089>092-261900-
SOUTH CENTRAL AND SOUTHEAST INDIANA

CITY           SKY/WX    TMP DP  RH WIND       PRES   REMARKS
BLOOMINGTON    SUNNY     35  25  66 SE6       30.08F WCI  30
6HR MIN TEMP:  27; 6HR MAX TEMP:  35;


$$



USA.gov is the U.S. government's official web portal to all federal, state and local government web resources and services.